sat.trackr.live / text

‹ back to catalog

TKSAT-1 (TUPAC KATARI)

NORAD 39481 · 2013-075A

PAYLOAD ACTIVE UNKNOWN

§ Identity

Operator
Country
BOL
Launch date
2013-12-20
Launch site
XICLF
Launch vehicle
Mass (kg)
RCS (m²)
40.97

Purposes: comms

External: N2YO · Heavens-Above · Gunter

§ Orbital elements

Epoch: 2026-09-20T04:03:44.851104Z

Period
1,436.09 min
Inclination
0.0394°
Eccentricity
0.0002158
Mean motion
1.00272306 rev/d
Perigee alt
35,777.3 km
Apogee alt
35,795.5 km
Semi-major
42,164.6 km
B*
0.0000e+0
RAAN
11.3094°
Arg perigee
149.0396°
Mean anomaly
172.4741°
Rev number
4,655

§ Raw data

TKSAT-1 (TUPAC KATARI)1 39481U 13075A   26263.16926911 -.00000199  00000+0  00000+0 0  99932 39481   0.0394  11.3094 0002158 149.0396 172.4741  1.00272306 46556

JSON: /api/v1/satellites/39481 · /tle

For live sub-satellite position, see the globe view (requires WebGL).

§ Visibility from observer

Set your observer location to see the next 7 days of passes ≥ 10°. The values pass through the URL so the page stays shareable.

No JS? Fill the form by hand. The geolocation button needs JavaScript.